Location: Be?i?
(36.9044°N, 30.1006°E)
Time: 11:33:17
(UTC+00:00)

Cosmos 1782 - Pass Details

Date: 05 August 2024
Orbit: 504 x 513 km, 82.5° (Epoch: 08 September)

Event Time Altitude Azimuth Distance (km) Brightness Sun altitude
Rises 19:24:54 0° 347° (NNW) 2,609 7.2 -24.4°
Reaches altitude 10° 19:27:03 10° 342° (NNW) 1,721 6.2 -24.7°
Enters shadow 19:30:19 49° 291° (WNW) 660 3.5 -25.1°
